owner,sensor,date,latitude,longitude,vertical_datum,wind_speed,wind_to_direction,wind_speed_of_gust,qcFlag 
TCOON,ioos:station:TCOON:057:1,2011-04-01T00:00:00Z,28.4460,-96.3961,0.0,4.6,177.0,5.2,'11111222,11111222,11111222' 
TCOON,ioos:station:TCOON:057:1,2011-04-01T01:00:00Z,28.4460,-96.3961,0.0,2.7,178.0,3.5,'11111222,11111222,11111222' 
TCOON,ioos:station:TCOON:057:1,2011-04-01T03:00:00Z,28.4460,-96.3961,0.0,6.5,181.0,7.3,'11111222,11111222,11111222' 
TCOON,ioos:station:TCOON:057:1,2011-04-01T04:00:00Z,28.4460,-96.3961,0.0,5.4,172.0,6.1,'11111222,11111222,11111222' 
TCOON,ioos:station:TCOON:057:1,2011-04-01T05:00:00Z,28.4460,-96.3961,0.0,4.8,162.0,5.3,'11111222,11111222,11111222' 
TCOON,ioos:station:TCOON:057:1,2011-04-01T06:00:00Z,28.4460,-96.3961,0.0,5.9,171.0,6.5,'11111222,11111222,11111222' 
TCOON,ioos:station:TCOON:057:1,2011-04-01T07:00:00Z,28.4460,-96.3961,0.0,4.4,195.0,5.4,'11111222,11111222,11111222' 
TCOON,ioos:station:TCOON:057:1,2011-04-01T08:00:00Z,28.4460,-96.3961,0.0,4.4,197.0,5.3,'11111222,11111222,11111222' 
TCOON,ioos:station:TCOON:057:1,2011-04-01T09:00:00Z,28.4460,-96.3961,0.0,4.4,202.0,5.1,'11111222,11111222,11111222' 
TCOON,ioos:station:TCOON:057:1,2011-04-01T10:00:00Z,28.4460,-96.3961,0.0,6.0,195.0,6.9,'11111222,11111222,11111222' 
TCOON,ioos:station:TCOON:057:1,2011-04-01T11:00:00Z,28.4460,-96.3961,0.0,5.8,199.0,6.7,'11111222,11111222,11111222' 
TCOON,ioos:station:TCOON:057:1,2011-04-01T12:00:00Z,28.4460,-96.3961,0.0,4.0,202.0,4.5,'11111222,11111222,11111222' 
TCOON,ioos:station:TCOON:057:1,2011-04-01T13:00:00Z,28.4460,-96.3961,0.0,3.5,203.0,4.4,'11111222,11111222,11111222' 
TCOON,ioos:station:TCOON:057:1,2011-04-01T14:00:00Z,28.4460,-96.3961,0.0,6.8,188.0,7.8,'11111222,11111222,11111222' 
TCOON,ioos:station:TCOON:057:1,2011-04-01T15:00:00Z,28.4460,-96.3961,0.0,6.9,184.0,7.6,'11111222,11111222,11111222' 
TCOON,ioos:station:TCOON:057:1,2011-04-01T16:00:00Z,28.4460,-96.3961,0.0,6.8,173.0,8.1,'11111222,11111222,11111222' 
TCOON,ioos:station:TCOON:057:1,2011-04-01T17:00:00Z,28.4460,-96.3961,0.0,6.7,173.0,7.3,'11111222,11111222,11111222' 
TCOON,ioos:station:TCOON:057:1,2011-04-01T18:00:00Z,28.4460,-96.3961,0.0,6.7,165.0,7.8,'11111222,11111222,11111222' 
TCOON,ioos:station:TCOON:057:1,2011-04-01T19:00:00Z,28.4460,-96.3961,0.0,7.0,160.0,8.3,'11111222,11111222,11111222' 
TCOON,ioos:station:TCOON:057:1,2011-04-01T20:00:00Z,28.4460,-96.3961,0.0,6.5,159.0,7.3,'11111222,11111222,11111222' 
TCOON,ioos:station:TCOON:057:1,2011-04-01T21:00:00Z,28.4460,-96.3961,0.0,7.1,146.0,8.1,'11111222,11111222,11111222' 
TCOON,ioos:station:TCOON:057:1,2011-04-01T22:00:00Z,28.4460,-96.3961,0.0,8.3,153.0,9.8,'11111222,11111222,11111222' 
TCOON,ioos:station:TCOON:057:1,2011-04-01T23:00:00Z,28.4460,-96.3961,0.0,8.2,141.0,9.3,'11111222,11111222,11111222' 
TCOON,ioos:station:TCOON:057:1,2011-04-02T00:00:00Z,28.4460,-96.3961,0.0,8.6,134.0,9.8,'11111222,11111222,11111222' 
TCOON,ioos:station:TCOON:057:1,2011-04-02T01:00:00Z,28.4460,-96.3961,0.0,7.2,136.0,8.5,'11111222,11111222,11111222' 
TCOON,ioos:station:TCOON:057:1,2011-04-02T02:00:00Z,28.4460,-96.3961,0.0,8.0,138.0,8.9,'11111222,11111222,11111222' 
TCOON,ioos:station:TCOON:057:1,2011-04-02T03:00:00Z,28.4460,-96.3961,0.0,7.3,136.0,8.1,'11111222,11111222,11111222' 
TCOON,ioos:station:TCOON:057:1,2011-04-02T04:00:00Z,28.4460,-96.3961,0.0,6.3,148.0,7.4,'11111222,11111222,11111222' 
TCOON,ioos:station:TCOON:057:1,2011-04-02T05:00:00Z,28.4460,-96.3961,0.0,7.8,156.0,9.3,'11111222,11111222,11111222' 
TCOON,ioos:station:TCOON:057:1,2011-04-02T06:00:00Z,28.4460,-96.3961,0.0,8.6,163.0,10.2,'11111222,11111222,11111222' 
TCOON,ioos:station:TCOON:057:1,2011-04-02T07:00:00Z,28.4460,-96.3961,0.0,9.1,176.0,10.6,'11111222,11111222,11111222' 
TCOON,ioos:station:TCOON:057:1,2011-04-02T08:00:00Z,28.4460,-96.3961,0.0,8.7,193.0,10.5,'11111222,11111222,11111222' 
TCOON,ioos:station:TCOON:057:1,2011-04-02T09:00:00Z,28.4460,-96.3961,0.0,2.8,214.0,3.5,'11111222,11111222,11111222' 
TCOON,ioos:station:TCOON:057:1,2011-04-02T10:00:00Z,28.4460,-96.3961,0.0,2.7,191.0,3.1,'11111222,11111222,11111222' 
TCOON,ioos:station:TCOON:057:1,2011-04-02T11:00:00Z,28.4460,-96.3961,0.0,3.4,167.0,3.6,'11111222,11111222,11111222' 
TCOON,ioos:station:TCOON:057:1,2011-04-02T12:00:00Z,28.4460,-96.3961,0.0,4.2,151.0,4.9,'11111222,11111222,11111222' 
TCOON,ioos:station:TCOON:057:1,2011-04-02T13:00:00Z,28.4460,-96.3961,0.0,4.6,144.0,5.6,'11111222,11111222,11111222' 
TCOON,ioos:station:TCOON:057:1,2011-04-02T14:00:00Z,28.4460,-96.3961,0.0,6.5,133.0,8.0,'11111222,11111222,11111222' 
TCOON,ioos:station:TCOON:057:1,2011-04-02T15:00:00Z,28.4460,-96.3961,0.0,6.7,124.0,7.6,'11111222,11111222,11111222' 
TCOON,ioos:station:TCOON:057:1,2011-04-02T16:00:00Z,28.4460,-96.3961,0.0,6.4,118.0,7.4,'11111222,11111222,11111222' 
TCOON,ioos:station:TCOON:057:1,2011-04-02T17:00:00Z,28.4460,-96.3961,0.0,6.3,122.0,7.0,'11111222,11111222,11111222' 
TCOON,ioos:station:TCOON:057:1,2011-04-02T18:00:00Z,28.4460,-96.3961,0.0,5.7,119.0,6.7,'11111222,11111222,11111222' 
TCOON,ioos:station:TCOON:057:1,2011-04-02T19:00:00Z,28.4460,-96.3961,0.0,6.5,123.0,7.4,'11111222,11111222,11111222' 
TCOON,ioos:station:TCOON:057:1,2011-04-02T20:00:00Z,28.4460,-96.3961,0.0,6.9,131.0,7.6,'11111222,11111222,11111222' 
TCOON,ioos:station:TCOON:057:1,2011-04-02T21:00:00Z,28.4460,-96.3961,0.0,6.0,128.0,7.4,'11111222,11111222,11111222' 
TCOON,ioos:station:TCOON:057:1,2011-04-02T22:00:00Z,28.4460,-96.3961,0.0,6.6,129.0,7.3,'11111222,11111222,11111222' 
TCOON,ioos:station:TCOON:057:1,2011-04-02T23:00:00Z,28.4460,-96.3961,0.0,7.7,125.0,8.9,'11111222,11111222,11111222' 
TCOON,ioos:station:TCOON:057:1,2011-04-03T00:00:00Z,28.4460,-96.3961,0.0,6.8,119.0,8.1,'11111222,11111222,11111222' 
TCOON,ioos:station:TCOON:057:1,2011-04-03T01:00:00Z,28.4460,-96.3961,0.0,7.2,114.0,8.0,'11111222,11111222,11111222' 
TCOON,ioos:station:TCOON:057:1,2011-04-03T02:00:00Z,28.4460,-96.3961,0.0,6.8,119.0,7.9,'11111222,11111222,11111222' 
TCOON,ioos:station:TCOON:057:1,2011-04-03T03:00:00Z,28.4460,-96.3961,0.0,7.5,124.0,8.6,'11111222,11111222,11111222' 
TCOON,ioos:station:TCOON:057:1,2011-04-03T04:00:00Z,28.4460,-96.3961,0.0,7.2,136.0,8.2,'11111222,11111222,11111222' 
TCOON,ioos:station:TCOON:057:1,2011-04-03T05:00:00Z,28.4460,-96.3961,0.0,7.2,137.0,8.5,'11111222,11111222,11111222' 
TCOON,ioos:station:TCOON:057:1,2011-04-03T06:00:00Z,28.4460,-96.3961,0.0,6.1,153.0,7.1,'11111222,11111222,11111222' 
TCOON,ioos:station:TCOON:057:1,2011-04-03T07:00:00Z,28.4460,-96.3961,0.0,6.7,148.0,7.9,'11111222,11111222,11111222' 
TCOON,ioos:station:TCOON:057:1,2011-04-03T08:00:00Z,28.4460,-96.3961,0.0,8.4,152.0,9.7,'11111222,11111222,11111222' 
TCOON,ioos:station:TCOON:057:1,2011-04-03T09:00:00Z,28.4460,-96.3961,0.0,7.2,159.0,8.4,'11111222,11111222,11111222' 
TCOON,ioos:station:TCOON:057:1,2011-04-03T10:00:00Z,28.4460,-96.3961,0.0,7.2,150.0,8.2,'11111222,11111222,11111222' 
TCOON,ioos:station:TCOON:057:1,2011-04-03T11:00:00Z,28.4460,-96.3961,0.0,6.4,149.0,7.4,'11111222,11111222,11111222' 
TCOON,ioos:station:TCOON:057:1,2011-04-03T12:00:00Z,28.4460,-96.3961,0.0,7.3,155.0,8.4,'11111222,11111222,11111222' 
TCOON,ioos:station:TCOON:057:1,2011-04-03T13:00:00Z,28.4460,-96.3961,0.0,7.0,140.0,7.8,'11111222,11111222,11111222' 
TCOON,ioos:station:TCOON:057:1,2011-04-03T14:00:00Z,28.4460,-96.3961,0.0,7.7,153.0,8.5,'11111222,11111222,11111222' 
TCOON,ioos:station:TCOON:057:1,2011-04-03T15:00:00Z,28.4460,-96.3961,0.0,7.9,143.0,9.3,'11111222,11111222,11111222' 
TCOON,ioos:station:TCOON:057:1,2011-04-03T16:00:00Z,28.4460,-96.3961,0.0,7.9,150.0,9.3,'11111222,11111222,11111222' 
TCOON,ioos:station:TCOON:057:1,2011-04-03T17:00:00Z,28.4460,-96.3961,0.0,8.7,150.0,10.3,'11111222,11111222,11111222' 
TCOON,ioos:station:TCOON:057:1,2011-04-03T18:00:00Z,28.4460,-96.3961,0.0,8.1,151.0,9.9,'11111222,11111222,11111222' 
TCOON,ioos:station:TCOON:057:1,2011-04-03T19:00:00Z,28.4460,-96.3961,0.0,8.1,155.0,9.9,'11111222,11111222,11111222' 
TCOON,ioos:station:TCOON:057:1,2011-04-03T20:00:00Z,28.4460,-96.3961,0.0,7.1,150.0,7.7,'11111222,11111222,11111222' 
TCOON,ioos:station:TCOON:057:1,2011-04-03T21:00:00Z,28.4460,-96.3961,0.0,7.5,142.0,8.7,'11111222,11111222,11111222' 
TCOON,ioos:station:TCOON:057:1,2011-04-03T22:00:00Z,28.4460,-96.3961,0.0,7.7,145.0,9.4,'11111222,11111222,11111222' 
TCOON,ioos:station:TCOON:057:1,2011-04-03T23:00:00Z,28.4460,-96.3961,0.0,8.0,136.0,8.7,'11111222,11111222,11111222' 
TCOON,ioos:station:TCOON:057:1,2011-04-04T00:00:00Z,28.4460,-96.3961,0.0,7.2,138.0,8.9,'11111222,11111222,11111222' 
TCOON,ioos:station:TCOON:057:1,2011-04-04T01:00:00Z,28.4460,-96.3961,0.0,8.0,145.0,9.0,'11111222,11111222,11111222' 
TCOON,ioos:station:TCOON:057:1,2011-04-04T02:00:00Z,28.4460,-96.3961,0.0,9.6,156.0,11.1,'11111222,11111222,11111222' 
TCOON,ioos:station:TCOON:057:1,2011-04-04T03:00:00Z,28.4460,-96.3961,0.0,13.5,157.0,16.2,'11111222,11111222,11111222' 
TCOON,ioos:station:TCOON:057:1,2011-04-04T04:00:00Z,28.4460,-96.3961,0.0,14.0,163.0,16.8,'11111222,11111222,11111222' 
TCOON,ioos:station:TCOON:057:1,2011-04-04T05:00:00Z,28.4460,-96.3961,0.0,13.8,167.0,16.1,'11111222,11111222,11111222' 
TCOON,ioos:station:TCOON:057:1,2011-04-04T06:00:00Z,28.4460,-96.3961,0.0,10.2,173.0,11.8,'11111222,11111222,11111222' 
TCOON,ioos:station:TCOON:057:1,2011-04-04T07:00:00Z,28.4460,-96.3961,0.0,12.0,170.0,14.0,'11111222,11111222,11111222' 
TCOON,ioos:station:TCOON:057:1,2011-04-04T08:00:00Z,28.4460,-96.3961,0.0,13.1,174.0,15.4,'11111222,11111222,11111222' 
TCOON,ioos:station:TCOON:057:1,2011-04-04T09:00:00Z,28.4460,-96.3961,0.0,12.5,187.0,16.1,'11111222,11111222,11111222' 
TCOON,ioos:station:TCOON:057:1,2011-04-04T10:00:00Z,28.4460,-96.3961,0.0,12.7,182.0,14.8,'11111222,11111222,11111222' 
TCOON,ioos:station:TCOON:057:1,2011-04-04T11:00:00Z,28.4460,-96.3961,0.0,10.4,186.0,12.0,'11111222,11111222,11111222' 
TCOON,ioos:station:TCOON:057:1,2011-04-04T12:00:00Z,28.4460,-96.3961,0.0,9.6,183.0,11.3,'11111222,11111222,11111222' 
TCOON,ioos:station:TCOON:057:1,2011-04-04T13:00:00Z,28.4460,-96.3961,0.0,10.0,175.0,11.9,'11111222,11111222,11111222' 
TCOON,ioos:station:TCOON:057:1,2011-04-04T14:00:00Z,28.4460,-96.3961,0.0,10.1,184.0,12.1,'11111222,11111222,11111222' 
TCOON,ioos:station:TCOON:057:1,2011-04-04T15:00:00Z,28.4460,-96.3961,0.0,6.3,210.0,7.7,'11111222,11111222,11111222' 
TCOON,ioos:station:TCOON:057:1,2011-04-04T16:00:00Z,28.4460,-96.3961,0.0,5.7,212.0,7.4,'11111222,11111222,11111222' 
TCOON,ioos:station:TCOON:057:1,2011-04-04T17:00:00Z,28.4460,-96.3961,0.0,6.3,229.0,7.9,'11111222,11111222,11111222' 
TCOON,ioos:station:TCOON:057:1,2011-04-04T18:00:00Z,28.4460,-96.3961,0.0,5.9,226.0,7.6,'11111222,11111222,11111222' 
TCOON,ioos:station:TCOON:057:1,2011-04-04T19:00:00Z,28.4460,-96.3961,0.0,14.0,2.0,16.7,'11111222,11111222,11111222' 
TCOON,ioos:station:TCOON:057:1,2011-04-04T20:00:00Z,28.4460,-96.3961,0.0,14.7,357.0,16.8,'11111222,11111222,11111222' 
TCOON,ioos:station:TCOON:057:1,2011-04-04T21:00:00Z,28.4460,-96.3961,0.0,12.1,359.0,14.3,'11111222,11111222,11111222' 
TCOON,ioos:station:TCOON:057:1,2011-04-04T22:00:00Z,28.4460,-96.3961,0.0,14.2,350.0,17.0,'11111222,11111222,11111222' 
TCOON,ioos:station:TCOON:057:1,2011-04-04T23:00:00Z,28.4460,-96.3961,0.0,13.3,342.0,17.8,'11111222,11111222,11111222' 
TCOON,ioos:station:TCOON:057:1,2011-04-05T00:00:00Z,28.4460,-96.3961,0.0,12.9,350.0,15.9,'11111222,11111222,11111222' 
TCOON,ioos:station:TCOON:057:1,2011-04-05T01:00:00Z,28.4460,-96.3961,0.0,13.0,1.0,15.4,'11111222,11111222,11111222' 
TCOON,ioos:station:TCOON:057:1,2011-04-05T02:00:00Z,28.4460,-96.3961,0.0,12.3,3.0,14.1,'11111222,11111222,11111222' 
TCOON,ioos:station:TCOON:057:1,2011-04-05T03:00:00Z,28.4460,-96.3961,0.0,11.1,5.0,12.5,'11111222,11111222,11111222' 
TCOON,ioos:station:TCOON:057:1,2011-04-05T04:00:00Z,28.4460,-96.3961,0.0,12.9,5.0,14.8,'11111222,11111222,11111222' 
TCOON,ioos:station:TCOON:057:1,2011-04-05T05:00:00Z,28.4460,-96.3961,0.0,12.9,10.0,15.3,'11111222,11111222,11111222' 
TCOON,ioos:station:TCOON:057:1,2011-04-05T06:00:00Z,28.4460,-96.3961,0.0,11.4,15.0,13.6,'11111222,11111222,11111222' 
TCOON,ioos:station:TCOON:057:1,2011-04-05T07:00:00Z,28.4460,-96.3961,0.0,10.5,26.0,12.3,'11111222,11111222,11111222' 
TCOON,ioos:station:TCOON:057:1,2011-04-05T08:00:00Z,28.4460,-96.3961,0.0,10.4,35.0,12.2,'11111222,11111222,11111222' 
TCOON,ioos:station:TCOON:057:1,2011-04-05T09:00:00Z,28.4460,-96.3961,0.0,8.6,44.0,10.1,'11111222,11111222,11111222' 
TCOON,ioos:station:TCOON:057:1,2011-04-05T10:00:00Z,28.4460,-96.3961,0.0,8.1,44.0,10.2,'11111222,11111222,11111222' 
TCOON,ioos:station:TCOON:057:1,2011-04-05T11:00:00Z,28.4460,-96.3961,0.0,8.5,51.0,9.8,'11111222,11111222,11111222' 
TCOON,ioos:station:TCOON:057:1,2011-04-05T12:00:00Z,28.4460,-96.3961,0.0,7.3,49.0,9.9,'11111222,11111222,11111222' 
TCOON,ioos:station:TCOON:057:1,2011-04-05T13:00:00Z,28.4460,-96.3961,0.0,6.4,56.0,7.8,'11111222,11111222,11111222' 
TCOON,ioos:station:TCOON:057:1,2011-04-05T14:00:00Z,28.4460,-96.3961,0.0,5.5,60.0,6.6,'11111222,11111222,11111222' 
TCOON,ioos:station:TCOON:057:1,2011-04-05T15:00:00Z,28.4460,-96.3961,0.0,3.8,42.0,5.0,'11111222,11111222,11111222' 
TCOON,ioos:station:TCOON:057:1,2011-04-05T16:00:00Z,28.4460,-96.3961,0.0,4.1,25.0,5.2,'11111222,11111222,11111222' 
TCOON,ioos:station:TCOON:057:1,2011-04-05T17:00:00Z,28.4460,-96.3961,0.0,3.9,42.0,4.8,'11111222,11111222,11111222' 
TCOON,ioos:station:TCOON:057:1,2011-04-05T18:00:00Z,28.4460,-96.3961,0.0,2.9,41.0,3.6,'11111222,11111222,11111222' 
TCOON,ioos:station:TCOON:057:1,2011-04-05T19:00:00Z,28.4460,-96.3961,0.0,3.3,75.0,4.4,'11111222,11111222,11111222' 
TCOON,ioos:station:TCOON:057:1,2011-04-05T20:00:00Z,28.4460,-96.3961,0.0,2.8,130.0,4.3,'11111222,11111222,11111222' 
TCOON,ioos:station:TCOON:057:1,2011-04-05T21:00:00Z,28.4460,-96.3961,0.0,3.5,136.0,4.5,'11111222,11111222,11111222' 
TCOON,ioos:station:TCOON:057:1,2011-04-05T22:00:00Z,28.4460,-96.3961,0.0,4.0,142.0,4.7,'11111222,11111222,11111222' 
TCOON,ioos:station:TCOON:057:1,2011-04-05T23:00:00Z,28.4460,-96.3961,0.0,5.0,140.0,6.0,'11111222,11111222,11111222' 
TCOON,ioos:station:TCOON:057:1,2011-04-06T00:00:00Z,28.4460,-96.3961,0.0,5.3,133.0,6.3,'11111222,11111222,11111222' 
TCOON,ioos:station:TCOON:057:1,2011-04-06T01:00:00Z,28.4460,-96.3961,0.0,6.7,122.0,7.8,'11111222,11111222,11111222' 
TCOON,ioos:station:TCOON:057:1,2011-04-06T02:00:00Z,28.4460,-96.3961,0.0,7.1,133.0,7.9,'11111222,11111222,11111222' 
TCOON,ioos:station:TCOON:057:1,2011-04-06T03:00:00Z,28.4460,-96.3961,0.0,8.0,134.0,9.7,'11111222,11111222,11111222' 
TCOON,ioos:station:TCOON:057:1,2011-04-06T04:00:00Z,28.4460,-96.3961,0.0,8.0,148.0,9.2,'11111222,11111222,11111222' 
TCOON,ioos:station:TCOON:057:1,2011-04-06T05:00:00Z,28.4460,-96.3961,0.0,8.3,151.0,9.6,'11111222,11111222,11111222' 
TCOON,ioos:station:TCOON:057:1,2011-04-06T06:00:00Z,28.4460,-96.3961,0.0,8.6,157.0,10.1,'11111222,11111222,11111222' 
TCOON,ioos:station:TCOON:057:1,2011-04-06T07:00:00Z,28.4460,-96.3961,0.0,9.6,161.0,11.0,'11111222,11111222,11111222' 
TCOON,ioos:station:TCOON:057:1,2011-04-06T08:00:00Z,28.4460,-96.3961,0.0,8.5,166.0,9.7,'11111222,11111222,11111222' 
TCOON,ioos:station:TCOON:057:1,2011-04-06T09:00:00Z,28.4460,-96.3961,0.0,9.3,171.0,10.7,'11111222,11111222,11111222' 
TCOON,ioos:station:TCOON:057:1,2011-04-06T10:00:00Z,28.4460,-96.3961,0.0,9.6,165.0,10.9,'11111222,11111222,11111222' 
TCOON,ioos:station:TCOON:057:1,2011-04-06T11:00:00Z,28.4460,-96.3961,0.0,9.2,174.0,10.5,'11111222,11111222,11111222' 
TCOON,ioos:station:TCOON:057:1,2011-04-06T12:00:00Z,28.4460,-96.3961,0.0,9.0,177.0,10.4,'11111222,11111222,11111222' 
TCOON,ioos:station:TCOON:057:1,2011-04-06T13:00:00Z,28.4460,-96.3961,0.0,9.3,177.0,10.5,'11111222,11111222,11111222' 
TCOON,ioos:station:TCOON:057:1,2011-04-06T14:00:00Z,28.4460,-96.3961,0.0,7.9,184.0,9.1,'11111222,11111222,11111222' 
TCOON,ioos:station:TCOON:057:1,2011-04-06T15:00:00Z,28.4460,-96.3961,0.0,8.3,170.0,9.4,'11111222,11111222,11111222' 
TCOON,ioos:station:TCOON:057:1,2011-04-06T16:00:00Z,28.4460,-96.3961,0.0,8.4,171.0,9.5,'11111222,11111222,11111222' 
TCOON,ioos:station:TCOON:057:1,2011-04-06T17:00:00Z,28.4460,-96.3961,0.0,8.9,175.0,10.3,'11111222,11111222,11111222' 
TCOON,ioos:station:TCOON:057:1,2011-04-06T18:00:00Z,28.4460,-96.3961,0.0,8.0,167.0,9.3,'11111222,11111222,11111222' 
TCOON,ioos:station:TCOON:057:1,2011-04-06T19:00:00Z,28.4460,-96.3961,0.0,7.2,162.0,9.3,'11111222,11111222,11111222' 
TCOON,ioos:station:TCOON:057:1,2011-04-06T20:00:00Z,28.4460,-96.3961,0.0,6.7,151.0,8.1,'11111222,11111222,11111222' 
TCOON,ioos:station:TCOON:057:1,2011-04-06T21:00:00Z,28.4460,-96.3961,0.0,7.7,150.0,8.5,'11111222,11111222,11111222' 
TCOON,ioos:station:TCOON:057:1,2011-04-06T22:00:00Z,28.4460,-96.3961,0.0,7.8,145.0,8.9,'11111222,11111222,11111222' 
TCOON,ioos:station:TCOON:057:1,2011-04-06T23:00:00Z,28.4460,-96.3961,0.0,8.0,148.0,9.1,'11111222,11111222,11111222' 
TCOON,ioos:station:TCOON:057:1,2011-04-07T00:00:00Z,28.4460,-96.3961,0.0,7.3,146.0,8.6,'11111222,11111222,11111222' 
TCOON,ioos:station:TCOON:057:1,2011-04-07T01:00:00Z,28.4460,-96.3961,0.0,7.8,146.0,9.2,'11111222,11111222,11111222' 
TCOON,ioos:station:TCOON:057:1,2011-04-07T02:00:00Z,28.4460,-96.3961,0.0,7.7,150.0,8.8,'11111222,11111222,11111222' 
TCOON,ioos:station:TCOON:057:1,2011-04-07T03:00:00Z,28.4460,-96.3961,0.0,7.8,151.0,9.2,'11111222,11111222,11111222' 
TCOON,ioos:station:TCOON:057:1,2011-04-07T04:00:00Z,28.4460,-96.3961,0.0,7.5,149.0,8.6,'11111222,11111222,11111222' 
TCOON,ioos:station:TCOON:057:1,2011-04-07T05:00:00Z,28.4460,-96.3961,0.0,9.2,153.0,10.6,'11111222,11111222,11111222' 
TCOON,ioos:station:TCOON:057:1,2011-04-07T06:00:00Z,28.4460,-96.3961,0.0,8.5,162.0,10.1,'11111222,11111222,11111222' 
TCOON,ioos:station:TCOON:057:1,2011-04-07T07:00:00Z,28.4460,-96.3961,0.0,7.8,167.0,9.3,'11111222,11111222,11111222' 
TCOON,ioos:station:TCOON:057:1,2011-04-07T08:00:00Z,28.4460,-96.3961,0.0,7.4,170.0,9.0,'11111222,11111222,11111222' 
TCOON,ioos:station:TCOON:057:1,2011-04-07T09:00:00Z,28.4460,-96.3961,0.0,7.4,167.0,8.7,'11111222,11111222,11111222' 
TCOON,ioos:station:TCOON:057:1,2011-04-07T10:00:00Z,28.4460,-96.3961,0.0,8.3,164.0,9.6,'11111222,11111222,11111222' 
TCOON,ioos:station:TCOON:057:1,2011-04-07T11:00:00Z,28.4460,-96.3961,0.0,7.4,166.0,8.6,'11111222,11111222,11111222' 
TCOON,ioos:station:TCOON:057:1,2011-04-07T12:00:00Z,28.4460,-96.3961,0.0,6.1,162.0,7.0,'11111222,11111222,11111222' 
TCOON,ioos:station:TCOON:057:1,2011-04-07T13:00:00Z,28.4460,-96.3961,0.0,5.1,172.0,6.0,'11111222,11111222,11111222' 
TCOON,ioos:station:TCOON:057:1,2011-04-07T14:00:00Z,28.4460,-96.3961,0.0,5.5,166.0,6.2,'11111222,11111222,11111222' 
TCOON,ioos:station:TCOON:057:1,2011-04-07T15:00:00Z,28.4460,-96.3961,0.0,6.7,159.0,8.0,'11111222,11111222,11111222' 
TCOON,ioos:station:TCOON:057:1,2011-04-07T16:00:00Z,28.4460,-96.3961,0.0,6.8,160.0,7.7,'11111222,11111222,11111222' 
TCOON,ioos:station:TCOON:057:1,2011-04-07T17:00:00Z,28.4460,-96.3961,0.0,8.1,156.0,9.2,'11111222,11111222,11111222' 
TCOON,ioos:station:TCOON:057:1,2011-04-07T18:00:00Z,28.4460,-96.3961,0.0,7.5,152.0,8.5,'11111222,11111222,11111222' 
TCOON,ioos:station:TCOON:057:1,2011-04-07T19:00:00Z,28.4460,-96.3961,0.0,7.0,129.0,8.2,'11111222,11111222,11111222' 
TCOON,ioos:station:TCOON:057:1,2011-04-07T20:00:00Z,28.4460,-96.3961,0.0,7.4,133.0,8.1,'11111222,11111222,11111222' 
TCOON,ioos:station:TCOON:057:1,2011-04-07T21:00:00Z,28.4460,-96.3961,0.0,6.9,127.0,7.7,'11111222,11111222,11111222' 
TCOON,ioos:station:TCOON:057:1,2011-04-07T22:00:00Z,28.4460,-96.3961,0.0,8.5,124.0,9.9,'11111222,11111222,11111222' 
TCOON,ioos:station:TCOON:057:1,2011-04-07T23:00:00Z,28.4460,-96.3961,0.0,8.8,127.0,10.3,'11111222,11111222,11111222' 
TCOON,ioos:station:TCOON:057:1,2011-04-08T00:00:00Z,28.4460,-96.3961,0.0,9.8,134.0,11.0,'11111222,11111222,11111222' 
TCOON,ioos:station:TCOON:057:1,2011-04-08T01:00:00Z,28.4460,-96.3961,0.0,8.9,138.0,11.2,'11111222,11111222,11111222' 
TCOON,ioos:station:TCOON:057:1,2011-04-08T02:00:00Z,28.4460,-96.3961,0.0,9.9,136.0,11.9,'11111222,11111222,11111222' 
TCOON,ioos:station:TCOON:057:1,2011-04-08T03:00:00Z,28.4460,-96.3961,0.0,9.5,138.0,11.5,'11111222,11111222,11111222' 
TCOON,ioos:station:TCOON:057:1,2011-04-08T04:00:00Z,28.4460,-96.3961,0.0,8.8,136.0,10.2,'11111222,11111222,11111222' 
TCOON,ioos:station:TCOON:057:1,2011-04-08T05:00:00Z,28.4460,-96.3961,0.0,9.6,130.0,11.2,'11111222,11111222,11111222' 
TCOON,ioos:station:TCOON:057:1,2011-04-08T06:00:00Z,28.4460,-96.3961,0.0,9.0,127.0,10.6,'11111222,11111222,11111222' 
TCOON,ioos:station:TCOON:057:1,2011-04-08T07:00:00Z,28.4460,-96.3961,0.0,8.1,153.0,9.4,'11111222,11111222,11111222' 
TCOON,ioos:station:TCOON:057:1,2011-04-08T08:00:00Z,28.4460,-96.3961,0.0,6.0,167.0,7.1,'11111222,11111222,11111222' 
TCOON,ioos:station:TCOON:057:1,2011-04-08T09:00:00Z,28.4460,-96.3961,0.0,7.8,162.0,9.2,'11111222,11111222,11111222' 
TCOON,ioos:station:TCOON:057:1,2011-04-08T10:00:00Z,28.4460,-96.3961,0.0,7.5,151.0,8.6,'11111222,11111222,11111222' 
TCOON,ioos:station:TCOON:057:1,2011-04-08T11:00:00Z,28.4460,-96.3961,0.0,6.9,155.0,8.4,'11111222,11111222,11111222' 
TCOON,ioos:station:TCOON:057:1,2011-04-08T12:00:00Z,28.4460,-96.3961,0.0,7.0,156.0,8.4,'11111222,11111222,11111222' 
TCOON,ioos:station:TCOON:057:1,2011-04-08T13:00:00Z,28.4460,-96.3961,0.0,8.0,158.0,9.6,'11111222,11111222,11111222' 
TCOON,ioos:station:TCOON:057:1,2011-04-08T14:00:00Z,28.4460,-96.3961,0.0,7.1,154.0,9.2,'11111222,11111222,11111222' 
TCOON,ioos:station:TCOON:057:1,2011-04-08T15:00:00Z,28.4460,-96.3961,0.0,6.0,149.0,7.5,'11111222,11111222,11111222' 
TCOON,ioos:station:TCOON:057:1,2011-04-08T16:00:00Z,28.4460,-96.3961,0.0,5.4,146.0,6.6,'11111222,11111222,11111222' 
TCOON,ioos:station:TCOON:057:1,2011-04-08T17:00:00Z,28.4460,-96.3961,0.0,7.2,143.0,8.1,'11111222,11111222,11111222' 
TCOON,ioos:station:TCOON:057:1,2011-04-08T18:00:00Z,28.4460,-96.3961,0.0,7.6,129.0,8.9,'11111222,11111222,11111222' 
TCOON,ioos:station:TCOON:057:1,2011-04-08T19:00:00Z,28.4460,-96.3961,0.0,8.4,130.0,9.2,'11111222,11111222,11111222' 
TCOON,ioos:station:TCOON:057:1,2011-04-08T20:00:00Z,28.4460,-96.3961,0.0,7.5,143.0,8.9,'11111222,11111222,11111222' 
TCOON,ioos:station:TCOON:057:1,2011-04-08T21:00:00Z,28.4460,-96.3961,0.0,7.3,137.0,8.2,'11111222,11111222,11111222' 
TCOON,ioos:station:TCOON:057:1,2011-04-08T22:00:00Z,28.4460,-96.3961,0.0,7.5,135.0,9.0,'11111222,11111222,11111222' 
TCOON,ioos:station:TCOON:057:1,2011-04-08T23:00:00Z,28.4460,-96.3961,0.0,6.9,139.0,8.3,'11111222,11111222,11111222' 
TCOON,ioos:station:TCOON:057:1,2011-04-09T00:00:00Z,28.4460,-96.3961,0.0,6.8,139.0,7.9,'11111222,11111222,11111222' 
TCOON,ioos:station:TCOON:057:1,2011-04-09T01:00:00Z,28.4460,-96.3961,0.0,8.0,141.0,9.6,'11111222,11111222,11111222' 
TCOON,ioos:station:TCOON:057:1,2011-04-09T02:00:00Z,28.4460,-96.3961,0.0,8.8,141.0,9.7,'11111222,11111222,11111222' 
TCOON,ioos:station:TCOON:057:1,2011-04-09T03:00:00Z,28.4460,-96.3961,0.0,8.3,141.0,10.0,'11111222,11111222,11111222' 
TCOON,ioos:station:TCOON:057:1,2011-04-09T04:00:00Z,28.4460,-96.3961,0.0,9.5,145.0,11.3,'11111222,11111222,11111222' 
TCOON,ioos:station:TCOON:057:1,2011-04-09T05:00:00Z,28.4460,-96.3961,0.0,11.7,150.0,13.9,'11111222,11111222,11111222' 
TCOON,ioos:station:TCOON:057:1,2011-04-09T06:00:00Z,28.4460,-96.3961,0.0,9.4,151.0,11.7,'11111222,11111222,11111222' 
TCOON,ioos:station:TCOON:057:1,2011-04-09T07:00:00Z,28.4460,-96.3961,0.0,9.1,155.0,10.7,'11111222,11111222,11111222' 
TCOON,ioos:station:TCOON:057:1,2011-04-09T08:00:00Z,28.4460,-96.3961,0.0,8.7,158.0,10.4,'11111222,11111222,11111222' 
TCOON,ioos:station:TCOON:057:1,2011-04-09T09:00:00Z,28.4460,-96.3961,0.0,7.6,155.0,8.8,'11111222,11111222,11111222' 
TCOON,ioos:station:TCOON:057:1,2011-04-09T10:00:00Z,28.4460,-96.3961,0.0,8.1,152.0,9.4,'11111222,11111222,11111222' 
TCOON,ioos:station:TCOON:057:1,2011-04-09T11:00:00Z,28.4460,-96.3961,0.0,8.1,155.0,9.2,'11111222,11111222,11111222' 